Back to catalog

SHIYAN 30 01

AliveScienceVLEO
NORAD 65851·PAYLOAD·🇨🇳 China

Launched Sep 29, 2025 from Xichang Satellite Launch Center

Loading…

Next Passes (next 24 hours)

TLE

FreshSource: Space-Track

Epoch: Sep 14, 2026, 18:26 UTC

1 65851U 25222A   26257.76838396  .00001394  00000-0  13772-3 0  9990
2 65851  34.9879  85.0909 0001841 201.1344 158.9285 14.91958756 52423

Track SHIYAN 30 01 in real time with AllMySat

Download on the App Store